(296877) = 2010 AR19

Discovered at Mount Lemmon on 2010-01-07 by Mt. Lemmon Survey.

Orbit

Orbit type: Main Belt

Note: WebGL enabled browser required.

epoch2023-09-13.0
epoch JD2460200.5
perihelion date2021-09-25.35514
perihelion JD2459482.85514
argument of perihelion (°)7.47522
ascending node (°)132.69668
inclination (°)6.23573
eccentricity0.0842971
perihelion distance (AU)2.2438010
Tisserand w.r.t. Jupiter3.5
ΔV w.r.t. Earth (km/sec)9.5
semimajor axis (AU)2.4503592
mean anomaly (°)184.40335
mean daily motion (°/day)0.25695630
aphelion distance (AU)2.657
period (years)3.84
P-vector [x]-0.76740381
P-vector [y]0.58249263
P-vector [z]0.26794351
Q-vector [x]-0.63617492
Q-vector [y]-0.74378759
Q-vector [z]-0.20508899
absolute magnitude17.13
phase slope0.15
uncertainty0
referenceMPO 779131
observations used399
oppositions14
arc length (days)8418
first opposition used2000
last opposition used2023
residual rms (arc-secs)0.74
perturbers coarse indicatorM-v
perturbers precise indicator003Ek
first observation date used2000-08-27.0
last observation date used2023-09-14.0
computer nameMPCLINUX
JD of orbit computation2456819.440369
perihelion JD uncertainty (days)1.2659E-04
argument of perihelion uncertainty (°)5.4948E-05
ascending node uncertainty (°)4.0502E-05
inclination uncertainty (°)5.5229E-06
eccentricity uncertainty 6.6829E-08
perihelion distance uncertainty (AU)1.7670E-07
Minimum Orbit Intersection Distances (in AU)
for orbit epoch: 2460200.5, reference: E2023-VB5
Mercury1.88671
Venus1.52605
Earth1.25574
Mars0.58126
Jupiter2.34825
Saturn6.71348
Uranus16.1837
Neptune27.2873

Observations

407 total observations over interval: 2000 08 27.02770 – 2023 09 14.297038
These data are available for download (format description).

Date (UT) J2000 RA J2000 Dec Magn Location Ref
2000 08 27.02770 21 16 25.21 -17 38 11.8 21.5 R 807 – Cerro Tololo Observatory, La Serena MPS 367194
2000 08 27.09423 21 16 22.12 -17 38 30.0   807 – Cerro Tololo Observatory, La Serena MPS 367194
2003 05 02.33198 15 03 27.30 -06 11 42.5 20.6 V 691 – Steward Observatory, Kitt Peak-Spacewatch MPS 313661
2003 05 02.35987 15 03 25.70 -06 11 35.4 20.6 V 691 – Steward Observatory, Kitt Peak-Spacewatch MPS 313661
2003 05 02.38837 15 03 24.05 -06 11 28.1 20.6 V 691 – Steward Observatory, Kitt Peak-Spacewatch MPS 313661
2003 05 26.16794 14 42 47.28 -05 07 09.2 21.0 V 691 – Steward Observatory, Kitt Peak-Spacewatch MPS 313661
2003 05 26.19669 14 42 46.04 -05 07 07.8 21.2 V 691 – Steward Observatory, Kitt Peak-Spacewatch MPS 313661
2003 05 26.22445 14 42 44.76 -05 07 06.6 20.9 V 691 – Steward Observatory, Kitt Peak-Spacewatch MPS 313661
2004 08 23.36429 22 42 31.67 -12 14 42.1 20.5 V 691 – Steward Observatory, Kitt Peak-Spacewatch MPS 313661
2004 08 23.39899 22 42 29.87 -12 14 57.8 20.4 V 691 – Steward Observatory, Kitt Peak-Spacewatch MPS 313661
2004 08 23.42577 22 42 28.45 -12 15 10.1 20.5 V 691 – Steward Observatory, Kitt Peak-Spacewatch MPS 313661
2007 06 09.33972 16 07 26.47 -11 27 44.8 20.3 V 691 – Steward Observatory, Kitt Peak-Spacewatch MPS 313661
2007 06 09.35733 16 07 25.50 -11 27 44.8 20.5 V 691 – Steward Observatory, Kitt Peak-Spacewatch MPS 313661
2007 06 09.37494 16 07 24.58 -11 27 44.6 20.7 V 691 – Steward Observatory, Kitt Peak-Spacewatch MPS 313661
2007 06 19.29605 15 59 36.14 -11 34 01.5 20.5 V 691 – Steward Observatory, Kitt Peak-Spacewatch MPS 313661
2007 06 19.31403 15 59 35.38 -11 34 02.6 20.3 V 691 – Steward Observatory, Kitt Peak-Spacewatch MPS 313661
2007 06 19.32930 15 59 34.68 -11 34 03.6 20.1 V 691 – Steward Observatory, Kitt Peak-Spacewatch MPS 313661
2008 10 01.20787 23 31 18.91 -10 32 04.8 20.7 V G96 – Mt. Lemmon Survey MPS 313661
2008 10 01.21177 23 31 18.73 -10 32 05.8 20.3 V G96 – Mt. Lemmon Survey MPS 313661
2008 10 01.21565 23 31 18.55 -10 32 06.8 20.6 V G96 – Mt. Lemmon Survey MPS 313661
2008 10 01.21950 23 31 18.37 -10 32 08.5 20.7 V G96 – Mt. Lemmon Survey MPS 313661
2009 12 15.48630 08 42 09.61 +14 31 36.7 20.6 V G96 – Mt. Lemmon Survey MPS 312837
2009 12 15.49369 08 42 09.54 +14 31 37.2 20.6 V G96 – Mt. Lemmon Survey MPS 312837
2009 12 15.50106 08 42 09.50 +14 31 38.2 20.2 V G96 – Mt. Lemmon Survey MPS 312837
2009 12 15.50838 08 42 09.39 +14 31 39.4 20.5 V G96 – Mt. Lemmon Survey MPS 312837
2009 12 26.77196 08 38 40.68 +15 05 40.1 19.8 R 300 – Bisei Spaceguard Center-BATTeRS MPS 313661
2009 12 26.77838 08 38 40.45 +15 05 41.4 19.8 R 300 – Bisei Spaceguard Center-BATTeRS MPS 313661
2009 12 26.78445 08 38 40.22 +15 05 42.0 20.0 R 300 – Bisei Spaceguard Center-BATTeRS MPS 313661
2009 12 26.78750 08 38 40.10 +15 05 43.7 20.0 R 300 – Bisei Spaceguard Center-BATTeRS MPS 313661
2009 12 26.79663 08 38 39.81 +15 05 45.3 19.9 R 300 – Bisei Spaceguard Center-BATTeRS MPS 313661
2010 01 07.41412 08 31 07.75 +16 02 30.0 19.8 V G96 – Mt. Lemmon Survey MPS 310383
2010 01 07.42119 08 31 07.42 +16 02 32.2 20.0 V G96 – Mt. Lemmon Survey MPS 310383
2010 01 07.42845 08 31 07.06 +16 02 34.6 19.9 V G96 – Mt. Lemmon Survey MPS 310383
2010 01 07.44554 08 31 06.20 +16 02 40.8 19.9 V G96 – Mt. Lemmon Survey MPS 310383
2010 01 08.22056 08 30 29.15 +16 07 06.5 19.7 V 691 – Steward Observatory, Kitt Peak-Spacewatch MPS 310383
2010 01 08.23828 08 30 28.33 +16 07 13.7 20.1 V 691 – Steward Observatory, Kitt Peak-Spacewatch MPS 310383
2010 01 08.25601 08 30 27.42 +16 07 20.0 20.0 V 691 – Steward Observatory, Kitt Peak-Spacewatch MPS 310383
2010 01 08.81420 08 29 59.47 +16 10 34.4 20.1 R 300 – Bisei Spaceguard Center-BATTeRS MPS 322324
2010 01 08.81915 08 29 59.18 +16 10 35.6 20.2 R 300 – Bisei Spaceguard Center-BATTeRS MPS 322324
2010 01 08.82411 08 29 58.94 +16 10 37.1 20.2 R 300 – Bisei Spaceguard Center-BATTeRS MPS 322324
2010 01 08.82906 08 29 58.65 +16 10 38.7 20.2 R 300 – Bisei Spaceguard Center-BATTeRS MPS 322324
2010 01 13.80153 08 25 38.15 +16 41 04.4 21.0 R 300 – Bisei Spaceguard Center-BATTeRS MPS 322324
2010 01 13.80553 08 25 37.92 +16 41 05.6 20.6 R 300 – Bisei Spaceguard Center-BATTeRS MPS 322324
2010 01 13.80952 08 25 37.71 +16 41 07.4 20.9 R 300 – Bisei Spaceguard Center-BATTeRS MPS 322324
2010 01 13.81351 08 25 37.46 +16 41 08.8 20.6 R 300 – Bisei Spaceguard Center-BATTeRS MPS 322324
2010 01 15.30231 08 24 15.01 +16 50 41.8 19.9 V 703 – Catalina Sky Survey MPS 312837
2010 01 15.31034 08 24 14.43 +16 50 44.3 20.2 V 703 – Catalina Sky Survey MPS 312837
2010 01 15.31830 08 24 14.07 +16 50 46.4 20.0 V 703 – Catalina Sky Survey MPS 312837
2010 01 15.32644 08 24 13.57 +16 50 50.7 20.0 V 703 – Catalina Sky Survey MPS 312837
2010 01 18.30981 08 21 23.04 +17 10 19.7   704 – Lincoln Laboratory ETS, New Mexico MPS 407594
2010 01 18.32237 08 21 22.27 +17 10 24.7   704 – Lincoln Laboratory ETS, New Mexico MPS 407594
2010 02 09.21980 08 00 55.54 +19 33 23.9 19.6 V G96 – Mt. Lemmon Survey MPS 313661
2010 02 09.22520 08 00 55.26 +19 33 26.0 19.6 V G96 – Mt. Lemmon Survey MPS 313661
2010 02 09.23059 08 00 55.00 +19 33 27.7 19.4 V G96 – Mt. Lemmon Survey MPS 313661
2010 02 09.23589 08 00 54.75 +19 33 29.8 20.5 V G96 – Mt. Lemmon Survey MPS 313661
2010 03 12.17226 07 51 05.47 +21 40 45.1 20.1 V G96 – Mt. Lemmon Survey MPS 316823
2010 03 12.18646 07 51 05.58 +21 40 46.3 20.6 V G96 – Mt. Lemmon Survey MPS 316823
2010 03 12.19353 07 51 05.65 +21 40 48.0 20.8 V G96 – Mt. Lemmon Survey MPS 316823
2012 10 05.367298 00 50 22.201 -03 59 07.81 20.4 r F51 – Pan-STARRS 1, Haleakala MPS 434910
2012 10 05.378651 00 50 21.581 -03 59 12.50 20.3 r F51 – Pan-STARRS 1, Haleakala MPS 434910
2012 10 05.462569 00 50 16.996 -03 59 46.79 20.2 i F51 – Pan-STARRS 1, Haleakala MPS 434910
2012 10 05.474646 00 50 16.329 -03 59 51.78 20.0 i F51 – Pan-STARRS 1, Haleakala MPS 434910
2012 10 11.31836 00 45 10.29 -04 37 45.0 20.0 V G96 – Mt. Lemmon Survey MPS 437788
2012 10 11.32545 00 45 09.93 -04 37 47.8 20.1 V G96 – Mt. Lemmon Survey MPS 437788
2012 10 11.33251 00 45 09.54 -04 37 50.5 20.3 V G96 – Mt. Lemmon Survey MPS 437788
2012 10 11.33961 00 45 09.18 -04 37 53.0 20.2 V G96 – Mt. Lemmon Survey MPS 437788
2012 10 15.337435 00 41 45.564 -05 01 04.83 20.5 w F51 – Pan-STARRS 1, Haleakala MPS 437788
2012 10 15.356606 00 41 44.568 -05 01 11.13 20.5 w F51 – Pan-STARRS 1, Haleakala MPS 437788
2012 10 15.371133 00 41 43.813 -05 01 16.05 20.6 w F51 – Pan-STARRS 1, Haleakala MPS 437788
2012 10 15.385750 00 41 43.049 -05 01 20.83 20.4 w F51 – Pan-STARRS 1, Haleakala MPS 437788
2012 10 21.343332 00 36 58.129 -05 30 51.96 20.3 i F51 – Pan-STARRS 1, Haleakala MPS 439395
2012 10 21.354755 00 36 57.580 -05 30 54.98 20.3 i F51 – Pan-STARRS 1, Haleakala MPS 439395
2012 10 21.366483 00 36 57.045 -05 30 58.30 20.6 r F51 – Pan-STARRS 1, Haleakala MPS 439395
2012 10 21.376813 00 36 56.533 -05 31 00.88 20.5 r F51 – Pan-STARRS 1, Haleakala MPS 439395
2013 12 13.44849 10 18 08.20 +09 53 05.1 20.4 V G96 – Mt. Lemmon Survey MPS 491944
2013 12 13.45699 10 18 08.53 +09 53 04.6 21.5 V G96 – Mt. Lemmon Survey MPS 491944
2013 12 13.46550 10 18 08.87 +09 53 03.9 20.3 V G96 – Mt. Lemmon Survey MPS 491944
2013 12 13.47400 10 18 09.23 +09 53 03.2 20.6 V G96 – Mt. Lemmon Survey MPS 491944
2014 01 26.02613 10 22 33.38 +11 51 51.9 20.1   J43 – Oukaimeden Observatory, Marrakech MPS 500091
2014 01 26.03640 10 22 33.03 +11 51 56.3 20.3   J43 – Oukaimeden Observatory, Marrakech MPS 500091
2014 01 26.04670 10 22 32.65 +11 52 00.8 20.1   J43 – Oukaimeden Observatory, Marrakech MPS 500091
2014 01 26.05693 10 22 32.30 +11 52 05.2 20.4   J43 – Oukaimeden Observatory, Marrakech MPS 500091
2014 01 28.97659 10 20 51.16 +12 13 26.8 20.3   J43 – Oukaimeden Observatory, Marrakech MPS 500091
2014 01 28.98683 10 20 50.77 +12 13 31.4 19.5   J43 – Oukaimeden Observatory, Marrakech MPS 500091
2014 01 28.99706 10 20 50.37 +12 13 36.2 19.9   J43 – Oukaimeden Observatory, Marrakech MPS 500091
2014 01 29.00731 10 20 49.97 +12 13 40.5 20.1   J43 – Oukaimeden Observatory, Marrakech MPS 500091
2014 02 06.25462 10 14 59.72 +13 19 48.1 20.0 V 691 – Steward Observatory, Kitt Peak-Spacewatch MPS 500905
